TimeMDT,TemperatureF,Dew PointF,Humidity,Sea Level PressureIn,VisibilityMPH,Wind Direction,Wind SpeedMPH,Gust SpeedMPH,PrecipitationIn,Events,Conditions,WindDirDegrees,DateUTC
12:56 AM,53.1,45.0,74,30.16,-9999.0,NNE,11.5,-,N/A,,Unknown,20,2013-07-26 06:56:00
1:56 AM,54.0,44.1,69,30.17,-9999.0,North,6.9,-,N/A,,Unknown,360,2013-07-26 07:56:00
2:56 AM,50.0,44.1,80,30.18,-9999.0,Calm,Calm,-,N/A,,Unknown,0,2013-07-26 08:56:00
3:56 AM,51.1,43.0,74,30.18,-9999.0,NE,4.6,-,N/A,,Unknown,40,2013-07-26 09:56:00
4:56 AM,48.9,43.0,80,30.19,-9999.0,NNE,5.8,-,N/A,,Unknown,30,2013-07-26 10:56:00
5:56 AM,46.9,44.1,90,30.21,-9999.0,NE,10.4,-,N/A,,Unknown,50,2013-07-26 11:56:00
6:56 AM,48.0,46.0,93,30.23,-9999.0,ENE,10.4,-,N/A,,Unknown,70,2013-07-26 12:56:00
7:56 AM,48.9,46.9,93,30.25,-9999.0,ENE,8.1,-,N/A,,Unknown,70,2013-07-26 13:56:00
8:56 AM,52.0,46.9,83,30.26,-9999.0,ENE,9.2,-,N/A,,Unknown,60,2013-07-26 14:56:00
9:56 AM,57.9,46.9,67,30.26,-9999.0,East,11.5,-,N/A,,Unknown,80,2013-07-26 15:56:00
10:56 AM,60.1,46.0,60,30.27,-9999.0,East,10.4,16.1,N/A,,Unknown,80,2013-07-26 16:56:00
11:56 AM,62.1,46.0,56,30.24,-9999.0,ENE,6.9,-,N/A,,Unknown,60,2013-07-26 17:56:00
12:56 PM,62.1,44.1,52,30.23,-9999.0,ENE,8.1,-,N/A,,Unknown,70,2013-07-26 18:56:00
1:56 PM,66.9,45.0,45,30.20,-9999.0,ENE,9.2,-,N/A,,Unknown,70,2013-07-26 19:56:00
2:56 PM,69.1,42.1,38,30.19,-9999.0,Variable,4.6,-,N/A,,Unknown,0,2013-07-26 20:56:00
3:56 PM,71.1,39.9,32,30.16,-9999.0,Calm,Calm,-,N/A,,Unknown,0,2013-07-26 21:56:00
4:56 PM,70.0,39.9,33,30.15,-9999.0,Variable,6.9,-,N/A,,Unknown,0,2013-07-26 22:56:00
5:56 PM,71.1,37.9,30,30.14,-9999.0,ENE,10.4,18.4,N/A,,Unknown,60,2013-07-26 23:56:00
6:56 PM,69.1,43.0,39,30.14,-9999.0,ENE,15.0,-,N/A,,Unknown,70,2013-07-27 00:56:00
7:56 PM,64.9,43.0,45,30.15,-9999.0,ENE,12.7,-,N/A,,Unknown,70,2013-07-27 01:56:00
8:56 PM,60.1,43.0,53,30.17,-9999.0,ENE,12.7,-,N/A,,Unknown,70,2013-07-27 02:56:00
9:56 PM,55.9,43.0,62,30.17,-9999.0,East,12.7,-,N/A,,Unknown,80,2013-07-27 03:56:00
10:56 PM,54.0,43.0,66,30.18,-9999.0,East,10.4,-,N/A,,Unknown,80,2013-07-27 04:56:00
11:56 PM,52.0,43.0,71,30.18,-9999.0,East,12.7,-,N/A,,Unknown,80,2013-07-27 05:56:00